BOX109 EKCH-EDDP

Flight info

Callsign BOX109
Flight time N/A
Altitude 31000
Route SALLO M736 BAKDO/N0472F290 M736 INDOK/N0469F350 M736 MAG/N0471F300 Z20 KENIG/N0428F230 T959 KOJEC KOJEC1R
Aircraft A339/H-SADE1E2E3GHIJ3J5M1P2RWXY/LB2D1

Departure

Time 2026-05-01 08:17
Airport Copenhagen Kastrup Airport (EKCH)

Arrival

Time N/A
Airport Leipzig/Halle Airport (EDDP)
Time Latitude Longitude Altitude Speed Heading
2026-05-01 07:36 55.61956 12.67114 28 ft 0 kts 79°
2026-05-01 07:44 55.61952 12.67079 30 ft 0 kts 79°
2026-05-01 08:01 55.61949 12.67047 28 ft 4 kts 75°
2026-05-01 08:01 55.61942 12.67003 27 ft 4 kts 91°
2026-05-01 08:02 55.61952 12.66941 30 ft 4 kts 169°
2026-05-01 08:02 55.61978 12.66935 30 ft 2 kts 169°
2026-05-01 08:03 55.61979 12.66934 30 ft 0 kts 169°
2026-05-01 08:05 55.61974 12.66936 30 ft 2 kts 169°
2026-05-01 08:06 55.61891 12.66965 30 ft 9 kts 169°
2026-05-01 08:06 55.61750 12.67014 30 ft 12 kts 169°
2026-05-01 08:07 55.61566 12.67078 30 ft 15 kts 168°
2026-05-01 08:07 55.61434 12.67125 30 ft 11 kts 169°
2026-05-01 08:08 55.61358 12.67125 30 ft 6 kts 191°
2026-05-01 08:08 55.61353 12.67123 30 ft 3 kts 192°
2026-05-01 08:09 55.61286 12.67003 31 ft 8 kts 272°
2026-05-01 08:09 55.61312 12.66904 30 ft 10 kts 301°
2026-05-01 08:09 55.61352 12.66789 30 ft 12 kts 303°
2026-05-01 08:10 55.61466 12.66483 29 ft 18 kts 303°
2026-05-01 08:10 55.61600 12.66124 31 ft 15 kts 303°
2026-05-01 08:11 55.61699 12.65856 32 ft 16 kts 303°
2026-05-01 08:11 55.61835 12.65487 29 ft 20 kts 303°
2026-05-01 08:12 55.61942 12.65196 28 ft 9 kts 303°
2026-05-01 08:12 55.61995 12.65054 29 ft 11 kts 303°
2026-05-01 08:12 55.61952 12.64884 29 ft 11 kts 215°
2026-05-01 08:13 55.61885 12.64805 29 ft 12 kts 213°
2026-05-01 08:13 55.61810 12.64719 30 ft 13 kts 213°
2026-05-01 08:13 55.61696 12.64588 30 ft 10 kts 214°
2026-05-01 08:14 55.61658 12.64480 30 ft 11 kts 254°
2026-05-01 08:14 55.61651 12.64361 30 ft 0 kts 265°
2026-05-01 08:14 55.61651 12.64352 30 ft 2 kts 265°
2026-05-01 08:14 55.61650 12.64319 30 ft 4 kts 267°
2026-05-01 08:15 55.61650 12.64314 30 ft 0 kts 267°
2026-05-01 08:15 55.61646 12.64199 31 ft 7 kts 266°
2026-05-01 08:15 55.61638 12.64115 33 ft 8 kts 253°
2026-05-01 08:16 55.61597 12.64030 33 ft 6 kts 223°
2026-05-01 08:16 55.61590 12.64019 32 ft 2 kts 223°
2026-05-01 08:16 55.61427 12.63757 30 ft 76 kts 221°
2026-05-01 08:16 55.60815 12.62806 33 ft 154 kts 221°
2026-05-01 08:17 55.59914 12.61411 598 ft 169 kts 221°
2026-05-01 08:17 55.59022 12.60056 1505 ft 171 kts 221°
2026-05-01 08:17 55.58546 12.59331 1872 ft 179 kts 221°
2026-05-01 08:17 55.58382 12.59079 1987 ft 183 kts 221°
2026-05-01 08:18 55.58064 12.58590 2191 ft 188 kts 221°